EDT,Max TemperatureF,Mean TemperatureF,Min TemperatureF,Max Dew PointF,MeanDew PointF,Min DewpointF,Max Humidity, Mean Humidity, Min Humidity, Max Sea Level PressureIn, Mean Sea Level PressureIn, Min Sea Level PressureIn, Max VisibilityMiles, Mean VisibilityMiles, Min VisibilityMiles, Max Wind SpeedMPH, Mean Wind SpeedMPH, Max Gust SpeedMPH,PrecipitationIn, CloudCover, Events, WindDirDegrees
2014-4-1,63,55,47,43,35,29,61,46,31,30.08,29.92,29.81,10,10,6,29,15,38,0.02,2,Rain,241
2014-4-2,54,48,41,46,41,32,93,76,58,30.14,30.08,30.03,10,9,4,14,6,18,0.24,7,Rain,97
2014-4-3,53,48,43,51,44,40,100,93,86,30.03,29.86,29.65,10,4,1,23,9,27,2.55,8,Rain-Thunderstorm,88
2014-4-4,58,47,36,54,43,27,100,82,64,29.96,29.66,29.45,10,6,0,35,17,46,0.20,7,Fog-Rain,238
2014-4-5,49,41,32,32,27,23,82,64,46,30.20,30.13,29.99,10,10,10,22,9,29,0.00,5,,309
2014-4-6,55,42,28,35,31,26,92,67,41,30.20,30.10,29.96,10,10,8,15,6,22,0.00,0,,96
2014-4-7,48,44,39,44,40,31,96,81,65,29.95,29.57,29.42,10,5,1,25,11,33,0.70,7,Rain,33
2014-4-8,56,47,38,45,40,33,93,77,61,29.85,29.70,29.58,10,7,4,16,10,23,0.04,4,Rain,292
2014-4-9,59,47,34,36,34,31,89,65,40,30.05,29.98,29.87,10,10,6,17,7,23,0.00,1,,276
2014-4-10,74,61,48,53,40,33,80,56,31,29.99,29.87,29.76,10,10,5,30,14,40,0.22,2,Rain,227
2014-4-11,65,58,50,52,46,33,96,64,31,30.07,29.99,29.91,10,7,1,15,5,27,0.37,4,Rain-Thunderstorm,303
2014-4-12,77,60,42,52,44,33,76,57,38,30.11,29.98,29.80,10,10,10,26,12,35,0.00,0,,192
2014-4-13,77,71,64,56,53,51,67,55,43,29.82,29.76,29.62,10,10,10,24,14,34,0.00,1,,205
2014-4-14,71,51,30,57,42,28,92,68,44,29.86,29.72,29.52,10,6,0,28,16,39,0.29,8,Fog-Rain-Snow,294
2014-4-15,36,31,25,29,23,15,92,70,47,30.27,30.01,29.85,10,8,0,25,13,33,T,6,Fog-Snow,333
2014-4-16,49,37,25,27,19,14,74,54,34,30.41,30.32,30.26,10,10,10,20,9,25,0.00,0,,144
2014-4-17,66,51,35,36,29,22,70,48,26,30.29,30.26,30.23,10,10,10,20,10,27,0.00,0,,186
2014-4-18,69,54,39,40,38,35,76,54,31,30.28,30.25,30.22,10,10,10,17,6,22,0.00,1,,287
2014-4-19,63,51,39,41,37,31,89,63,36,30.37,30.32,30.27,10,7,2,18,10,24,0.00,2,,69
2014-4-20,74,55,35,40,33,28,76,50,23,30.28,30.20,30.09,10,10,10,13,5,17,0.00,0,,158
2014-4-21,76,62,47,55,44,37,84,59,33,30.08,29.96,29.83,10,10,6,18,8,24,0.01,2,Rain,228
2014-4-22,60,50,39,56,47,30,93,67,41,29.99,29.84,29.75,10,6,2,26,14,33,0.15,5,Rain,297
2014-4-23,58,45,32,32,30,28,82,58,33,30.13,30.07,29.99,10,10,3,13,6,15,0.00,0,,358
2014-4-24,63,55,46,35,27,21,61,42,22,30.11,29.97,29.75,10,10,10,23,13,30,0.00,1,,131
2014-4-25,64,57,50,52,44,25,93,60,26,29.87,29.70,29.61,10,6,1,26,11,33,0.38,6,Rain,245
2014-4-26,72,61,50,46,41,35,66,50,34,29.96,29.90,29.83,10,10,10,21,9,27,0.00,2,,306
2014-4-27,71,56,41,42,37,33,76,56,35,30.07,29.96,29.87,10,10,10,25,17,32,0.00,1,,89
2014-4-28,63,55,46,57,48,37,93,77,61,29.78,29.70,29.60,10,4,1,30,14,35,0.87,6,Rain-Thunderstorm,98
2014-4-29,74,64,53,58,52,42,100,65,29,29.75,29.59,29.51,10,9,4,29,12,42,0.10,3,Rain,190
2014-4-30,65,55,45,51,46,37,89,72,55,29.88,29.79,29.73,10,10,6,20,11,25,0.00,6,,227